TimeCDT,TemperatureF,Dew PointF,Humidity,Sea Level PressureIn,VisibilityMPH,Wind Direction,Wind SpeedMPH,Gust SpeedMPH,PrecipitationIn,Events,Conditions,WindDirDegrees,DateUTC
12:15 AM,40.5,38.3,92,30.02,10.0,WNW,9.2,-,N/A,,Overcast,300,2013-10-23 05:15:00
12:35 AM,40.3,37.4,89,30.02,10.0,WNW,9.2,-,N/A,,Overcast,300,2013-10-23 05:35:00
12:55 AM,40.3,37.0,88,30.03,10.0,NW,9.2,-,N/A,,Overcast,310,2013-10-23 05:55:00
1:15 AM,40.1,36.7,88,30.03,10.0,WNW,9.2,-,N/A,,Overcast,300,2013-10-23 06:15:00
1:35 AM,39.9,36.5,88,30.03,10.0,NW,8.1,-,N/A,,Overcast,310,2013-10-23 06:35:00
1:55 AM,39.6,36.3,88,30.03,10.0,NW,8.1,-,N/A,,Overcast,310,2013-10-23 06:55:00
2:15 AM,39.4,36.0,88,30.03,10.0,WNW,9.2,-,N/A,,Overcast,300,2013-10-23 07:15:00
2:35 AM,39.2,35.6,87,30.03,10.0,WNW,9.2,-,N/A,,Overcast,300,2013-10-23 07:35:00
2:55 AM,39.2,35.1,85,30.03,10.0,WNW,10.4,-,N/A,,Overcast,300,2013-10-23 07:55:00
3:15 AM,38.8,34.5,84,30.03,10.0,WNW,10.4,-,N/A,,Overcast,300,2013-10-23 08:15:00
3:35 AM,38.3,33.8,84,30.03,10.0,WNW,10.4,-,N/A,,Overcast,300,2013-10-23 08:35:00
3:55 AM,37.2,32.9,84,30.02,10.0,NW,9.2,-,N/A,,Overcast,310,2013-10-23 08:55:00
4:15 AM,36.0,32.0,86,30.02,10.0,NW,9.2,-,N/A,,Mostly Cloudy,310,2013-10-23 09:15:00
4:35 AM,35.2,32.0,88,30.03,10.0,WNW,9.2,-,N/A,,Scattered Clouds,300,2013-10-23 09:35:00
4:55 AM,34.7,32.0,90,30.03,10.0,WNW,10.4,-,N/A,,Clear,300,2013-10-23 09:55:00
5:15 AM,34.7,31.6,89,30.04,10.0,WNW,10.4,-,N/A,,Clear,300,2013-10-23 10:15:00
5:35 AM,34.0,31.3,90,30.05,10.0,WNW,9.2,-,N/A,,Clear,290,2013-10-23 10:35:00
5:55 AM,33.8,31.1,90,30.05,10.0,WNW,9.2,-,N/A,,Clear,300,2013-10-23 10:55:00
6:15 AM,33.8,31.1,90,30.05,10.0,NW,9.2,-,N/A,,Clear,310,2013-10-23 11:15:00
6:35 AM,33.3,31.1,92,30.06,10.0,WNW,9.2,-,N/A,,Clear,300,2013-10-23 11:35:00
6:55 AM,33.1,31.1,92,30.07,10.0,WNW,8.1,-,N/A,,Scattered Clouds,300,2013-10-23 11:55:00
7:15 AM,33.8,31.6,92,30.07,10.0,WNW,6.9,-,N/A,,Overcast,290,2013-10-23 12:15:00
7:35 AM,34.7,32.0,90,30.07,10.0,West,8.1,-,N/A,,Overcast,280,2013-10-23 12:35:00
7:55 AM,35.2,32.4,89,30.08,10.0,West,6.9,-,N/A,,Overcast,280,2013-10-23 12:55:00
8:15 AM,35.6,32.9,90,30.09,10.0,West,8.1,-,N/A,,Overcast,280,2013-10-23 13:15:00
8:35 AM,36.0,33.3,90,30.10,10.0,West,6.9,-,N/A,,Overcast,270,2013-10-23 13:35:00
8:55 AM,37.0,34.0,89,30.10,10.0,WNW,8.1,-,N/A,,Overcast,290,2013-10-23 13:55:00
9:15 AM,38.8,35.6,88,30.10,10.0,West,11.5,-,N/A,,Scattered Clouds,280,2013-10-23 14:15:00
9:35 AM,40.5,35.6,83,30.10,10.0,WNW,11.5,-,N/A,,Clear,300,2013-10-23 14:35:00
9:55 AM,41.5,35.4,79,30.10,10.0,WNW,10.4,-,N/A,,Clear,290,2013-10-23 14:55:00
10:15 AM,42.8,35.1,74,30.10,10.0,WNW,11.5,-,N/A,,Clear,300,2013-10-23 15:15:00
10:35 AM,43.2,35.1,73,30.11,10.0,WNW,12.7,16.1,N/A,,Scattered Clouds,290,2013-10-23 15:35:00
10:55 AM,44.2,34.3,68,30.11,10.0,WNW,12.7,-,N/A,,Scattered Clouds,300,2013-10-23 15:55:00
11:15 AM,44.8,32.9,63,30.10,10.0,WNW,11.5,-,N/A,,Scattered Clouds,290,2013-10-23 16:15:00
11:35 AM,45.5,31.5,58,30.11,10.0,West,11.5,18.4,N/A,,Scattered Clouds,280,2013-10-23 16:35:00
11:55 AM,46.4,31.6,56,30.11,10.0,West,13.8,17.3,N/A,,Scattered Clouds,280,2013-10-23 16:55:00
12:15 PM,45.9,30.9,56,30.11,10.0,West,13.8,17.3,N/A,,Scattered Clouds,280,2013-10-23 17:15:00
12:35 PM,47.1,30.0,51,30.10,10.0,West,12.7,16.1,N/A,,Mostly Cloudy,270,2013-10-23 17:35:00
12:55 PM,46.4,30.6,54,30.10,10.0,West,9.2,17.3,N/A,,Overcast,270,2013-10-23 17:55:00
1:15 PM,46.4,28.9,51,30.10,10.0,West,15.0,19.6,N/A,,Overcast,270,2013-10-23 18:15:00
1:35 PM,45.9,30.6,55,30.09,10.0,West,11.5,-,N/A,,Overcast,280,2013-10-23 18:35:00
1:55 PM,46.6,29.1,51,30.08,10.0,West,11.5,-,N/A,,Overcast,280,2013-10-23 18:55:00
2:15 PM,46.6,29.5,51,30.08,10.0,West,12.7,19.6,N/A,,Overcast,280,2013-10-23 19:15:00
2:35 PM,47.3,28.9,49,30.07,10.0,West,10.4,18.4,N/A,,Overcast,270,2013-10-23 19:35:00
2:55 PM,47.7,29.5,49,30.07,10.0,West,11.5,-,N/A,,Overcast,260,2013-10-23 19:55:00
3:15 PM,46.9,28.8,49,30.08,10.0,WNW,10.4,17.3,N/A,,Overcast,290,2013-10-23 20:15:00
3:35 PM,46.6,29.1,51,30.08,10.0,West,12.7,18.4,N/A,,Overcast,280,2013-10-23 20:35:00
3:55 PM,46.4,28.0,49,30.08,10.0,West,11.5,-,N/A,,Overcast,270,2013-10-23 20:55:00
4:15 PM,45.7,28.9,52,30.08,10.0,West,9.2,17.3,N/A,Rain,Light Rain,280,2013-10-23 21:15:00
4:35 PM,44.6,30.0,57,30.08,10.0,West,12.7,18.4,N/A,,Overcast,280,2013-10-23 21:35:00
4:55 PM,43.2,31.8,64,30.09,10.0,West,12.7,-,N/A,Rain,Light Rain,280,2013-10-23 21:55:00
5:15 PM,42.1,32.2,68,30.10,10.0,West,13.8,19.6,N/A,Rain,Light Rain,280,2013-10-23 22:15:00
5:35 PM,41.4,32.9,72,30.10,10.0,WNW,15.0,-,N/A,Rain,Light Rain,290,2013-10-23 22:35:00
5:55 PM,41.0,33.3,74,30.10,10.0,West,9.2,-,N/A,,Mostly Cloudy,280,2013-10-23 22:55:00
6:15 PM,40.8,32.4,72,30.10,10.0,West,9.2,-,N/A,,Scattered Clouds,280,2013-10-23 23:15:00
6:35 PM,39.9,32.2,74,30.10,10.0,West,5.8,-,N/A,,Scattered Clouds,280,2013-10-23 23:35:00
6:55 PM,40.1,32.2,73,30.11,10.0,West,4.6,-,N/A,,Scattered Clouds,270,2013-10-23 23:55:00
7:15 PM,38.7,32.0,77,30.11,10.0,West,4.6,-,N/A,,Mostly Cloudy,270,2013-10-24 00:15:00
7:35 PM,36.0,30.9,82,30.12,10.0,West,6.9,-,N/A,,Scattered Clouds,270,2013-10-24 00:35:00
7:55 PM,36.1,31.3,83,30.12,10.0,West,5.8,-,N/A,,Clear,270,2013-10-24 00:55:00
8:15 PM,36.0,31.1,82,30.13,10.0,West,4.6,-,N/A,,Mostly Cloudy,270,2013-10-24 01:15:00
8:35 PM,34.0,30.0,85,30.13,10.0,West,4.6,-,N/A,,Scattered Clouds,270,2013-10-24 01:35:00
8:55 PM,36.3,32.2,85,30.13,10.0,West,4.6,-,N/A,,Mostly Cloudy,270,2013-10-24 01:55:00
9:15 PM,38.3,33.1,81,30.12,10.0,West,5.8,-,N/A,,Overcast,260,2013-10-24 02:15:00
9:35 PM,39.2,33.6,80,30.12,10.0,WSW,4.6,-,N/A,,Overcast,250,2013-10-24 02:35:00
9:55 PM,39.0,33.6,81,30.12,10.0,WSW,4.6,-,N/A,,Overcast,240,2013-10-24 02:55:00
10:15 PM,39.4,34.2,82,30.12,10.0,WSW,5.8,-,N/A,,Overcast,250,2013-10-24 03:15:00
10:35 PM,39.6,34.2,81,30.12,10.0,WSW,8.1,-,N/A,,Overcast,250,2013-10-24 03:35:00
10:55 PM,39.7,34.7,82,30.12,10.0,West,5.8,-,N/A,,Overcast,260,2013-10-24 03:55:00
11:15 PM,39.7,34.2,80,30.12,10.0,WSW,5.8,-,N/A,,Overcast,250,2013-10-24 04:15:00
11:35 PM,40.1,34.9,82,30.12,10.0,WSW,8.1,-,N/A,,Overcast,250,2013-10-24 04:35:00
11:55 PM,40.1,35.4,83,30.12,10.0,West,8.1,-,N/A,,Overcast,260,2013-10-24 04:55:00